Time,TemperatureF,DewpointF,PressureIn,WindDirection,WindDirectionDegrees,WindSpeedMPH,WindSpeedGustMPH,Humidity,HourlyPrecipIn,Conditions,Clouds,dailyrainin,SoftwareType,DateUTC
2013-03-03 00:02:00,39.0,-99.9,-100.00,WNW,290,16.0,22.0,-999,-99.99,,,-99.99,,2013-03-03 05:02:00,
2013-03-03 00:12:00,39.0,-99.9,-100.00,WNW,290,16.0,22.0,-999,-99.99,,,-99.99,,2013-03-03 05:12:00,
2013-03-03 00:22:00,39.0,-99.9,-100.00,WNW,290,16.0,22.0,-999,-99.99,,,-99.99,,2013-03-03 05:22:00,
2013-03-03 00:32:00,39.0,-99.9,-100.00,WNW,290,16.0,22.0,-999,-99.99,,,-99.99,,2013-03-03 05:32:00,
2013-03-03 00:40:00,38.0,-99.9,-100.00,WNW,300,13.0,20.0,-999,-99.99,,,-99.99,,2013-03-03 05:40:00,
2013-03-03 01:02:00,38.0,-99.9,-100.00,WNW,300,13.0,20.0,-999,-99.99,,,-99.99,,2013-03-03 06:02:00,
2013-03-03 01:11:00,38.0,-99.9,-100.00,WNW,300,13.0,20.0,-999,-99.99,,,-99.99,,2013-03-03 06:11:00,
2013-03-03 01:22:00,38.0,-99.9,-100.00,WNW,300,13.0,20.0,-999,-99.99,,,-99.99,,2013-03-03 06:22:00,
2013-03-03 01:32:00,38.0,-99.9,-100.00,WNW,300,13.0,20.0,-999,-99.99,,,-99.99,,2013-03-03 06:32:00,
2013-03-03 01:40:00,38.0,-99.9,-100.00,NW,310,16.0,21.0,-999,-99.99,,,-99.99,,2013-03-03 06:40:00,
2013-03-03 02:01:00,38.0,-99.9,-100.00,NW,310,16.0,21.0,-999,-99.99,,,-99.99,,2013-03-03 07:01:00,
2013-03-03 02:11:00,38.0,-99.9,-100.00,NW,310,16.0,21.0,-999,-99.99,,,-99.99,,2013-03-03 07:11:00,
2013-03-03 02:22:00,38.0,-99.9,-100.00,NW,310,16.0,21.0,-999,-99.99,,,-99.99,,2013-03-03 07:22:00,
2013-03-03 02:32:00,38.0,-99.9,-100.00,NW,310,16.0,21.0,-999,-99.99,,,-99.99,,2013-03-03 07:32:00,
2013-03-03 02:40:00,37.0,-99.9,-100.00,NW,310,14.0,17.0,-999,-99.99,,,-99.99,,2013-03-03 07:40:00,
2013-03-03 03:01:00,37.0,-99.9,-100.00,NW,310,14.0,17.0,-999,-99.99,,,-99.99,,2013-03-03 08:01:00,
2013-03-03 03:11:00,37.0,-99.9,-100.00,NW,310,14.0,17.0,-999,-99.99,,,-99.99,,2013-03-03 08:11:00,
2013-03-03 03:21:00,37.0,-99.9,-100.00,NW,310,14.0,17.0,-999,-99.99,,,-99.99,,2013-03-03 08:21:00,
2013-03-03 03:32:00,37.0,-99.9,-100.00,NW,310,14.0,17.0,-999,-99.99,,,-99.99,,2013-03-03 08:32:00,
2013-03-03 03:40:00,36.0,-99.9,-100.00,WNW,290,15.0,18.0,-999,-99.99,,,-99.99,,2013-03-03 08:40:00,
2013-03-03 04:02:00,36.0,-99.9,-100.00,WNW,290,15.0,18.0,-999,-99.99,,,-99.99,,2013-03-03 09:02:00,
2013-03-03 04:12:00,36.0,-99.9,-100.00,WNW,290,15.0,18.0,-999,-99.99,,,-99.99,,2013-03-03 09:12:00,
2013-03-03 04:22:00,36.0,-99.9,-100.00,WNW,290,15.0,18.0,-999,-99.99,,,-99.99,,2013-03-03 09:22:00,
2013-03-03 04:32:00,36.0,-99.9,-100.00,WNW,290,15.0,18.0,-999,-99.99,,,-99.99,,2013-03-03 09:32:00,
2013-03-03 04:40:00,36.0,-99.9,-100.00,WNW,300,14.0,20.0,-999,-99.99,,,-99.99,,2013-03-03 09:40:00,
2013-03-03 05:01:00,36.0,-99.9,-100.00,WNW,300,14.0,20.0,-999,-99.99,,,-99.99,,2013-03-03 10:01:00,
2013-03-03 05:12:00,36.0,-99.9,-100.00,WNW,300,14.0,20.0,-999,-99.99,,,-99.99,,2013-03-03 10:12:00,
2013-03-03 05:22:00,36.0,-99.9,-100.00,WNW,300,14.0,20.0,-999,-99.99,,,-99.99,,2013-03-03 10:22:00,
2013-03-03 05:32:00,36.0,-99.9,-100.00,WNW,300,14.0,20.0,-999,-99.99,,,-99.99,,2013-03-03 10:32:00,
2013-03-03 05:40:00,36.0,-99.9,-100.00,WNW,290,13.0,16.0,-999,-99.99,,,-99.99,,2013-03-03 10:40:00,
2013-03-03 06:02:00,36.0,-99.9,-100.00,WNW,290,13.0,16.0,-999,-99.99,,,-99.99,,2013-03-03 11:02:00,
2013-03-03 06:11:00,36.0,-99.9,-100.00,WNW,290,13.0,16.0,-999,-99.99,,,-99.99,,2013-03-03 11:11:00,
2013-03-03 06:22:00,36.0,-99.9,-100.00,WNW,290,13.0,16.0,-999,-99.99,,,-99.99,,2013-03-03 11:22:00,
2013-03-03 06:32:00,36.0,-99.9,-100.00,WNW,290,13.0,16.0,-999,-99.99,,,-99.99,,2013-03-03 11:32:00,
2013-03-03 06:40:00,35.0,-99.9,-100.00,WNW,290,13.0,16.0,-999,-99.99,,,-99.99,,2013-03-03 11:40:00,
2013-03-03 07:02:00,35.0,-99.9,-100.00,WNW,290,13.0,16.0,-999,-99.99,,,-99.99,,2013-03-03 12:02:00,
2013-03-03 07:11:00,35.0,-99.9,-100.00,WNW,290,13.0,16.0,-999,-99.99,,,-99.99,,2013-03-03 12:11:00,
2013-03-03 07:22:00,35.0,-99.9,-100.00,WNW,290,13.0,16.0,-999,-99.99,,,-99.99,,2013-03-03 12:22:00,
2013-03-03 07:32:00,35.0,-99.9,-100.00,WNW,290,13.0,16.0,-999,-99.99,,,-99.99,,2013-03-03 12:32:00,
2013-03-03 07:40:00,35.0,-99.9,-100.00,WNW,290,11.0,15.0,-999,-99.99,,,-99.99,,2013-03-03 12:40:00,
2013-03-03 08:02:00,35.0,-99.9,-100.00,WNW,290,11.0,15.0,-999,-99.99,,,-99.99,,2013-03-03 13:02:00,
2013-03-03 08:11:00,35.0,-99.9,-100.00,WNW,290,11.0,15.0,-999,-99.99,,,-99.99,,2013-03-03 13:11:00,
2013-03-03 08:22:00,35.0,-99.9,-100.00,WNW,290,11.0,15.0,-999,-99.99,,,-99.99,,2013-03-03 13:22:00,
2013-03-03 08:32:00,35.0,-99.9,-100.00,WNW,290,11.0,15.0,-999,-99.99,,,-99.99,,2013-03-03 13:32:00,
2013-03-03 08:40:00,34.0,-99.9,-100.00,WNW,290,9.0,13.0,-999,-99.99,,,-99.99,,2013-03-03 13:40:00,
2013-03-03 09:02:00,34.0,-99.9,-100.00,WNW,290,9.0,13.0,-999,-99.99,,,-99.99,,2013-03-03 14:02:00,
2013-03-03 09:11:00,34.0,-99.9,-100.00,WNW,290,9.0,13.0,-999,-99.99,,,-99.99,,2013-03-03 14:11:00,
2013-03-03 09:22:00,34.0,-99.9,-100.00,WNW,290,9.0,13.0,-999,-99.99,,,-99.99,,2013-03-03 14:22:00,
2013-03-03 09:32:00,34.0,-99.9,-100.00,WNW,290,9.0,13.0,-999,-99.99,,,-99.99,,2013-03-03 14:32:00,
2013-03-03 09:40:00,35.0,-99.9,-100.00,NW,310,8.0,13.0,-999,-99.99,,,-99.99,,2013-03-03 14:40:00,
2013-03-03 10:02:00,35.0,-99.9,-100.00,NW,310,8.0,13.0,-999,-99.99,,,-99.99,,2013-03-03 15:02:00,
2013-03-03 10:11:00,35.0,-99.9,-100.00,NW,310,8.0,13.0,-999,-99.99,,,-99.99,,2013-03-03 15:11:00,
2013-03-03 10:22:00,35.0,-99.9,-100.00,NW,310,8.0,13.0,-999,-99.99,,,-99.99,,2013-03-03 15:22:00,
2013-03-03 10:33:00,35.0,-99.9,-100.00,NW,310,8.0,13.0,-999,-99.99,,,-99.99,,2013-03-03 15:33:00,
2013-03-03 10:40:00,37.0,-99.9,-100.00,WNW,300,6.0,8.0,-999,-99.99,,,-99.99,,2013-03-03 15:40:00,
2013-03-03 11:02:00,37.0,-99.9,-100.00,WNW,300,6.0,8.0,-999,-99.99,,,-99.99,,2013-03-03 16:02:00,
2013-03-03 11:12:00,37.0,-99.9,-100.00,WNW,300,6.0,8.0,-999,-99.99,,,-99.99,,2013-03-03 16:12:00,
2013-03-03 11:22:00,37.0,-99.9,-100.00,WNW,300,6.0,8.0,-999,-99.99,,,-99.99,,2013-03-03 16:22:00,
2013-03-03 11:32:00,37.0,-99.9,-100.00,WNW,300,6.0,8.0,-999,-99.99,,,-99.99,,2013-03-03 16:32:00,
2013-03-03 11:40:00,39.0,-99.9,-100.00,NNW,330,5.0,6.0,-999,-99.99,,,-99.99,,2013-03-03 16:40:00,
2013-03-03 12:01:00,39.0,-99.9,-100.00,NNW,330,5.0,6.0,-999,-99.99,,,-99.99,,2013-03-03 17:01:00,
2013-03-03 12:12:00,39.0,-99.9,-100.00,NNW,330,5.0,6.0,-999,-99.99,,,-99.99,,2013-03-03 17:12:00,
2013-03-03 12:22:00,39.0,-99.9,-100.00,NNW,330,5.0,6.0,-999,-99.99,,,-99.99,,2013-03-03 17:22:00,
2013-03-03 12:32:00,39.0,-99.9,-100.00,NNW,330,5.0,6.0,-999,-99.99,,,-99.99,,2013-03-03 17:32:00,
2013-03-03 12:40:00,40.0,-99.9,-100.00,NW,320,8.0,11.0,-999,-99.99,,,-99.99,,2013-03-03 17:40:00,
2013-03-03 13:02:00,40.0,-99.9,-100.00,NW,320,8.0,11.0,-999,-99.99,,,-99.99,,2013-03-03 18:02:00,
2013-03-03 13:11:00,40.0,-99.9,-100.00,NW,320,8.0,11.0,-999,-99.99,,,-99.99,,2013-03-03 18:11:00,
2013-03-03 13:22:00,40.0,-99.9,-100.00,NW,320,8.0,11.0,-999,-99.99,,,-99.99,,2013-03-03 18:22:00,
2013-03-03 13:32:00,40.0,-99.9,-100.00,NW,320,8.0,11.0,-999,-99.99,,,-99.99,,2013-03-03 18:32:00,
2013-03-03 13:40:00,42.0,-99.9,-100.00,NNW,330,9.0,11.0,-999,-99.99,,,-99.99,,2013-03-03 18:40:00,
2013-03-03 14:02:00,42.0,-99.9,-100.00,NNW,330,9.0,11.0,-999,-99.99,,,-99.99,,2013-03-03 19:02:00,
2013-03-03 14:11:00,42.0,-99.9,-100.00,NNW,330,9.0,11.0,-999,-99.99,,,-99.99,,2013-03-03 19:11:00,
2013-03-03 14:22:00,42.0,-99.9,-100.00,NNW,330,9.0,11.0,-999,-99.99,,,-99.99,,2013-03-03 19:22:00,
2013-03-03 14:32:00,42.0,-99.9,-100.00,NNW,330,9.0,11.0,-999,-99.99,,,-99.99,,2013-03-03 19:32:00,
2013-03-03 14:40:00,46.0,-99.9,-100.00,West,260,6.0,14.0,-999,-99.99,,,-99.99,,2013-03-03 19:40:00,
2013-03-03 15:02:00,46.0,-99.9,-100.00,West,260,6.0,14.0,-999,-99.99,,,-99.99,,2013-03-03 20:02:00,
2013-03-03 15:12:00,46.0,-99.9,-100.00,West,260,6.0,14.0,-999,-99.99,,,-99.99,,2013-03-03 20:12:00,
2013-03-03 15:22:00,46.0,-99.9,-100.00,West,260,6.0,14.0,-999,-99.99,,,-99.99,,2013-03-03 20:22:00,
2013-03-03 15:32:00,46.0,-99.9,-100.00,West,260,6.0,14.0,-999,-99.99,,,-99.99,,2013-03-03 20:32:00,
2013-03-03 15:40:00,45.0,-99.9,-100.00,WNW,290,11.0,16.0,-999,-99.99,,,-99.99,,2013-03-03 20:40:00,
2013-03-03 16:02:00,45.0,-99.9,-100.00,WNW,290,11.0,16.0,-999,-99.99,,,-99.99,,2013-03-03 21:02:00,
2013-03-03 16:12:00,45.0,-99.9,-100.00,WNW,290,11.0,16.0,-999,-99.99,,,-99.99,,2013-03-03 21:12:00,
2013-03-03 16:22:00,45.0,-99.9,-100.00,WNW,290,11.0,16.0,-999,-99.99,,,-99.99,,2013-03-03 21:22:00,
2013-03-03 16:32:00,45.0,-99.9,-100.00,WNW,290,11.0,16.0,-999,-99.99,,,-99.99,,2013-03-03 21:32:00,
2013-03-03 16:40:00,46.0,-99.9,-100.00,West,280,11.0,16.0,-999,-99.99,,,-99.99,,2013-03-03 21:40:00,
2013-03-03 17:02:00,46.0,-99.9,-100.00,West,280,11.0,16.0,-999,-99.99,,,-99.99,,2013-03-03 22:02:00,
2013-03-03 17:11:00,46.0,-99.9,-100.00,West,280,11.0,16.0,-999,-99.99,,,-99.99,,2013-03-03 22:11:00,
2013-03-03 17:22:00,46.0,-99.9,-100.00,West,280,11.0,16.0,-999,-99.99,,,-99.99,,2013-03-03 22:22:00,
2013-03-03 17:32:00,46.0,-99.9,-100.00,West,280,11.0,16.0,-999,-99.99,,,-99.99,,2013-03-03 22:32:00,
2013-03-03 17:40:00,47.0,-99.9,-100.00,West,260,7.0,13.0,-999,-99.99,,,-99.99,,2013-03-03 22:40:00,
2013-03-03 18:02:00,47.0,-99.9,-100.00,West,260,7.0,13.0,-999,-99.99,,,-99.99,,2013-03-03 23:02:00,
2013-03-03 18:11:00,47.0,-99.9,-100.00,West,260,7.0,13.0,-999,-99.99,,,-99.99,,2013-03-03 23:11:00,
2013-03-03 18:22:00,47.0,-99.9,-100.00,West,260,7.0,13.0,-999,-99.99,,,-99.99,,2013-03-03 23:22:00,
2013-03-03 18:32:00,47.0,-99.9,-100.00,West,260,7.0,13.0,-999,-99.99,,,-99.99,,2013-03-03 23:32:00,
2013-03-03 18:40:00,45.0,-99.9,-100.00,WSW,250,10.0,21.0,-999,-99.99,,,-99.99,,2013-03-03 23:40:00,
2013-03-03 19:02:00,45.0,-99.9,-100.00,WSW,250,10.0,21.0,-999,-99.99,,,-99.99,,2013-03-04 00:02:00,
2013-03-03 19:11:00,45.0,-99.9,-100.00,WSW,250,10.0,21.0,-999,-99.99,,,-99.99,,2013-03-04 00:11:00,
2013-03-03 19:22:00,45.0,-99.9,-100.00,WSW,250,10.0,21.0,-999,-99.99,,,-99.99,,2013-03-04 00:22:00,
2013-03-03 19:32:00,45.0,-99.9,-100.00,WSW,250,10.0,21.0,-999,-99.99,,,-99.99,,2013-03-04 00:32:00,
2013-03-03 19:40:00,43.0,-99.9,-100.00,WSW,250,5.0,10.0,-999,-99.99,,,-99.99,,2013-03-04 00:40:00,
2013-03-03 20:02:00,43.0,-99.9,-100.00,WSW,250,5.0,10.0,-999,-99.99,,,-99.99,,2013-03-04 01:02:00,
2013-03-03 20:12:00,43.0,-99.9,-100.00,WSW,250,5.0,10.0,-999,-99.99,,,-99.99,,2013-03-04 01:12:00,
2013-03-03 20:22:00,43.0,-99.9,-100.00,WSW,250,5.0,10.0,-999,-99.99,,,-99.99,,2013-03-04 01:22:00,
2013-03-03 20:32:00,43.0,-99.9,-100.00,WSW,250,5.0,10.0,-999,-99.99,,,-99.99,,2013-03-04 01:32:00,
2013-03-03 20:40:00,42.0,-99.9,-100.00,West,260,8.0,23.0,-999,-99.99,,,-99.99,,2013-03-04 01:40:00,
2013-03-03 21:01:00,42.0,-99.9,-100.00,West,260,8.0,23.0,-999,-99.99,,,-99.99,,2013-03-04 02:01:00,
2013-03-03 21:11:00,42.0,-99.9,-100.00,West,260,8.0,23.0,-999,-99.99,,,-99.99,,2013-03-04 02:11:00,
2013-03-03 21:22:00,42.0,-99.9,-100.00,West,260,8.0,23.0,-999,-99.99,,,-99.99,,2013-03-04 02:22:00,
2013-03-03 21:32:00,42.0,-99.9,-100.00,West,260,8.0,23.0,-999,-99.99,,,-99.99,,2013-03-04 02:32:00,
2013-03-03 21:40:00,39.0,-99.9,-100.00,West,260,11.0,20.0,-999,-99.99,,,-99.99,,2013-03-04 02:40:00,
2013-03-03 22:02:00,39.0,-99.9,-100.00,West,260,11.0,20.0,-999,-99.99,,,-99.99,,2013-03-04 03:02:00,
2013-03-03 22:12:00,39.0,-99.9,-100.00,West,260,11.0,20.0,-999,-99.99,,,-99.99,,2013-03-04 03:12:00,
2013-03-03 22:22:00,39.0,-99.9,-100.00,West,260,11.0,20.0,-999,-99.99,,,-99.99,,2013-03-04 03:22:00,
2013-03-03 22:32:00,39.0,-99.9,-100.00,West,260,11.0,20.0,-999,-99.99,,,-99.99,,2013-03-04 03:32:00,
2013-03-03 22:40:00,38.0,-99.9,-100.00,West,270,15.0,21.0,-999,-99.99,,,-99.99,,2013-03-04 03:40:00,
2013-03-03 23:02:00,38.0,-99.9,-100.00,West,270,15.0,21.0,-999,-99.99,,,-99.99,,2013-03-04 04:02:00,
2013-03-03 23:11:00,38.0,-99.9,-100.00,West,270,15.0,21.0,-999,-99.99,,,-99.99,,2013-03-04 04:11:00,
2013-03-03 23:22:00,38.0,-99.9,-100.00,West,270,15.0,21.0,-999,-99.99,,,-99.99,,2013-03-04 04:22:00,
2013-03-03 23:32:00,38.0,-99.9,-100.00,West,270,15.0,21.0,-999,-99.99,,,-99.99,,2013-03-04 04:32:00,
2013-03-03 23:40:00,38.0,-99.9,-100.00,West,270,11.0,17.0,-999,-99.99,,,-99.99,,2013-03-04 04:40:00,